Tracking 18984 objects as of 23-Feb-2018
HD Live streaming from Space Station
objects crossing your sky now

FENGYUN 1C DEB

Track FENGYUN 1C DEB now!
10-day predictions


NORAD ID: 30663
Int'l Code: 1999-025APV
Perigee: 701.6 km
Apogee: 1,777.3 km
Inclination: 99.3 °
Period: 110.1 minutes
Semi major axis: 7610 km
RCS: 0.0057 m2 (small)
Launch date: May 10, 1999
Source: People's Republic of China (PRC)
Launch site: Taiyaun Space Center, China (TSC)

Note: This is SATELLITE DEBRIS
aabbcc
Your satellite tracking list
Your tracking list is empty




NASA's NSSDC Master Catalog

Two Line Element Set (TLE):
1 30663U 99025APV 18054.10183040  .00000895  00000-0  80163-3 0  9991
2 30663  99.2920 275.1381 0706699  63.4763 303.7035 13.07636890523154
Source of the keplerian elements: AFSPC